Weather History for KALI - March, 2014

Change the Weather History Date:

Saturday, March 15, 2014

  Actual Average Record
Temperature  
Mean Temperature 74 °F -  
Max Temperature 84 °F 74 °F 97 °F (2008)
Min Temperature 64 °F 54 °F 39 °F (1999)
Cooling Degree Days 9    
Growing Degree Days 24 (Base 50)    
Moisture  
Dew Point 64 °F    
Average Humidity 87    
Maximum Humidity 100    
Minimum Humidity 44    
Precipitation  
Precipitation 0.00 in - - ()
Sea Level Pressure  
Sea Level Pressure 29.85 in    
Wind  
Wind Speed 7 mph (SSE)    
Max Wind Speed 15 mph    
Max Gust Speed 23 mph    
Visibility 5 miles    
Events Fog    
Averages and records for this station are not official NWS values.
T = Trace of Precipitation, MM = Missing Value Source: NWS Daily Summary

Daily Weather History Graph

Daily Weather History Graph

Search for Another Location

Airport or City:

Trip Planner

Search our weather history database for the weather conditions in past years. The results will help you decide how hot, cold, wet, or windy it might be!

Date:

Astronomy

Mar. 15, 2014 Rise Set
Actual Time 7:41 AM CDT 7:40 PM CDT
Civil Twilight 7:18 AM CDT 8:04 PM CDT
Nautical Twilight 6:51 AM CDT 8:31 PM CDT
Astronomical Twilight 6:23 AM CDT 8:58 PM CDT
Moon 7:02 PM CDT (3/15) 6:51 AM CDT (3/15)
Length of Visible Light 12h 45m
Length of Day
11h 59m
Waxing Gibbous, 99% of the Moon is Illuminated
Mar 15
Waxing Gibbous
Mar 16
Full
Mar 23
Last Quarter
Mar 30
New
Apr 7
First Quarter

Hourly Weather History & Observations

Time (CDT) Temp. Heat Index Dew Point Humidity Pressure Visibility Wind Dir Wind Speed Gust Speed Precip Events Conditions
12:35 AM 64.0 °F - 63.0 °F 96% 29.94 in 8.0 mi SE 9.2 mph - N/A   Overcast
12:53 AM 64.0 °F - 63.0 °F 96% 29.93 in 7.0 mi SE 9.2 mph - N/A   Overcast
1:09 AM 64.9 °F - 63.0 °F 93% 29.93 in 7.0 mi SE 6.9 mph - N/A   Overcast
1:53 AM 64.9 °F - 64.0 °F 97% 29.92 in 5.0 mi SE 8.1 mph - N/A   Overcast
2:53 AM 64.9 °F - 64.0 °F 97% 29.92 in 3.0 mi SE 3.5 mph - N/A   Overcast
3:25 AM 64.9 °F - 64.0 °F 97% 29.92 in 2.5 mi Calm Calm - 0.00 in   Overcast
3:37 AM 64.9 °F - 64.0 °F 97% 29.92 in 3.0 mi Calm Calm - 0.00 in   Overcast
3:53 AM 64.9 °F - 64.0 °F 97% 29.91 in 3.0 mi ESE 4.6 mph - 0.00 in   Overcast
4:05 AM 64.9 °F - 64.0 °F 97% 29.91 in 4.0 mi Calm Calm - N/A   Overcast
4:53 AM 64.9 °F - 64.0 °F 97% 29.88 in 3.0 mi ESE 4.6 mph - N/A   Overcast
5:05 AM 64.0 °F - 64.0 °F 100% 29.88 in 3.0 mi ESE 5.8 mph - N/A   Overcast
5:17 AM 64.0 °F - 64.0 °F 100% 29.88 in 2.5 mi ESE 4.6 mph - N/A   Overcast
5:32 AM 64.9 °F - 64.0 °F 97% 29.88 in 1.5 mi ESE 6.9 mph - N/A   Overcast
5:46 AM 64.9 °F - 64.0 °F 97% 29.87 in 3.0 mi SE 6.9 mph - N/A   Overcast
5:53 AM 64.9 °F - 64.9 °F 100% 29.87 in 2.5 mi SE 9.2 mph - N/A   Overcast
6:06 AM 64.9 °F - 64.9 °F 100% 29.88 in 1.2 mi SE 6.9 mph - N/A   Overcast
6:15 AM 64.9 °F - 64.9 °F 100% 29.87 in 0.5 mi SE 6.9 mph - N/A Fog Fog
6:50 AM 64.4 °F - 64.4 °F 100% 29.88 in 0.2 mi SE 5.8 mph - N/A Fog Fog
6:53 AM 64.0 °F - 64.0 °F 100% 29.88 in 0.2 mi SSE 4.6 mph - N/A Fog Fog
7:25 AM 64.0 °F - 64.0 °F 100% 29.88 in 0.5 mi ESE 3.5 mph - N/A Fog Fog
7:53 AM 64.0 °F - 64.0 °F 100% 29.88 in 0.5 mi ESE 4.6 mph - N/A Fog Fog
8:05 AM 64.9 °F - 64.0 °F 97% 29.88 in 0.2 mi SE 5.8 mph - N/A Fog Fog
8:45 AM 64.9 °F - 64.9 °F 100% 29.89 in 0.5 mi ESE 4.6 mph - N/A Fog Fog
8:53 AM 64.9 °F - 64.9 °F 100% 29.88 in 0.5 mi SE 4.6 mph - N/A Fog Fog
8:59 AM 66.0 °F - 64.9 °F 96% 29.89 in 1.0 mi SE 6.9 mph - N/A   Mist
9:32 AM 66.0 °F - 66.0 °F 100% 29.88 in 2.5 mi SSE 5.8 mph - N/A   Overcast
9:39 AM 66.9 °F - 66.0 °F 97% 29.88 in 5.0 mi SSE 9.2 mph - N/A   Overcast
9:53 AM 66.9 °F - 66.0 °F 97% 29.88 in 9.0 mi South 9.2 mph - N/A   Overcast
10:07 AM 66.9 °F - 66.0 °F 97% 29.89 in 10.0 mi South 8.1 mph - N/A   Overcast
10:38 AM 71.1 °F - 64.9 °F 81% 29.88 in 10.0 mi South 10.4 mph - N/A   Overcast
10:51 AM 71.6 °F - 64.4 °F 78% 29.89 in 10.0 mi South 15.0 mph 23.0 mph N/A   Overcast
10:53 AM 72.0 °F - 64.9 °F 78% 29.88 in 10.0 mi SSW 15.0 mph 23.0 mph N/A   Overcast
11:00 AM 73.0 °F - 64.9 °F 76% 29.88 in 10.0 mi SSW 15.0 mph - N/A   Overcast
11:53 AM 75.9 °F - 63.0 °F 64% 29.87 in 10.0 mi SSW 11.5 mph - N/A   Mostly Cloudy
12:53 PM 77.0 °F - 62.1 °F 60% 29.85 in 10.0 mi SSW 12.7 mph - N/A   Overcast
1:53 PM 81.0 °F 81.9 °F 62.1 °F 52% 29.81 in 10.0 mi SW 13.8 mph 18.4 mph N/A   Mostly Cloudy
2:53 PM 82.0 °F 83.1 °F 63.0 °F 52% 29.78 in 10.0 mi SSW 11.5 mph - N/A   Overcast
3:53 PM 82.9 °F 83.7 °F 62.1 °F 49% 29.75 in 10.0 mi WSW 11.5 mph - N/A   Mostly Cloudy
4:53 PM 84.0 °F 84.4 °F 61.0 °F 46% 29.72 in 10.0 mi SSW 10.4 mph - N/A   Scattered Clouds
5:53 PM 84.0 °F 84.0 °F 60.1 °F 44% 29.70 in 10.0 mi SW 5.8 mph - N/A   Partly Cloudy
6:53 PM 82.9 °F 82.8 °F 59.0 °F 44% 29.69 in 10.0 mi South 5.8 mph - N/A   Clear
7:53 PM 75.0 °F - 68.0 °F 79% 29.70 in 10.0 mi SSE 8.1 mph - N/A   Clear
8:53 PM 72.0 °F - 68.0 °F 87% 29.72 in 10.0 mi SE 8.1 mph - N/A   Clear
9:53 PM 70.0 °F - 66.9 °F 90% 29.72 in 8.0 mi SE 6.9 mph - N/A   Clear
10:53 PM 68.0 °F - 66.9 °F 96% 29.72 in 5.0 mi SSE 6.9 mph - N/A   Mostly Cloudy
11:36 PM 66.9 °F - 66.0 °F 97% 29.73 in 4.0 mi SSE 5.8 mph - N/A   Overcast
11:49 PM 69.8 °F - 66.2 °F 88% 29.74 in 5.0 mi South 5.8 mph - N/A   Overcast
11:53 PM 69.1 °F - 68.0 °F 96% 29.73 in 5.0 mi South 6.9 mph - N/A   Overcast